SAS766 EPWR-EKCH

Flight info

Callsign SAS766
Flight time 0h 57m
Altitude 32000
Route XIDNA L619 DENKO L996 GOSOT/N0432F280 L996 ROE M743 TIDVU
Aircraft A21N/M-SDE2E3FGHIRWXY/LB1

Departure

Time 2026-05-04 00:18
Airport Copernicus Wrocław Airport (EPWR)

Arrival

Time 2026-05-04 01:15
Airport Copenhagen Kastrup Airport (EKCH)
Time Latitude Longitude Altitude Speed Heading
2026-05-04 00:02 51.10980 16.87618 400 ft 0 kts 26°
2026-05-04 00:09 51.10971 16.87611 400 ft 2 kts 26°
2026-05-04 00:09 51.10963 16.87604 400 ft 2 kts 26°
2026-05-04 00:09 51.10948 16.87598 400 ft 2 kts
2026-05-04 00:10 51.10933 16.87599 400 ft 2 kts 347°
2026-05-04 00:10 51.10919 16.87607 401 ft 2 kts 330°
2026-05-04 00:10 51.10907 16.87621 401 ft 2 kts 314°
2026-05-04 00:10 51.10899 16.87637 401 ft 0 kts 298°
2026-05-04 00:11 51.10896 16.87647 401 ft 0 kts 295°
2026-05-04 00:14 51.10897 16.87645 401 ft 1 kts 295°
2026-05-04 00:14 51.10915 16.87584 401 ft 9 kts 296°
2026-05-04 00:15 51.10944 16.87477 401 ft 10 kts 279°
2026-05-04 00:15 51.10906 16.87394 402 ft 10 kts 206°
2026-05-04 00:15 51.10784 16.87306 403 ft 22 kts 207°
2026-05-04 00:15 51.10702 16.87175 405 ft 16 kts 279°
2026-05-04 00:16 51.10766 16.86955 404 ft 25 kts 296°
2026-05-04 00:16 51.10824 16.86730 402 ft 17 kts 271°
2026-05-04 00:16 51.10840 16.86591 402 ft 9 kts 328°
2026-05-04 00:16 51.10858 16.86643 402 ft 5 kts 117°
2026-05-04 00:17 51.10848 16.86687 402 ft 0 kts 114°
2026-05-04 00:17 51.10839 16.86719 402 ft 14 kts 115°
2026-05-04 00:18 51.10669 16.87273 406 ft 95 kts 115°
2026-05-04 00:18 51.10282 16.88545 400 ft 160 kts 118°
2026-05-04 00:18 51.09764 16.90249 922 ft 174 kts 119°
2026-05-04 00:18 51.09293 16.91912 1846 ft 167 kts 122°
2026-05-04 00:19 51.08847 16.93549 2641 ft 162 kts 122°
2026-05-04 00:19 51.08348 16.95191 3107 ft 172 kts 127°
2026-05-04 00:19 51.07760 16.96938 3530 ft 188 kts 126°
2026-05-04 00:19 51.07124 16.98842 3962 ft 205 kts 123°
2026-05-04 00:20 51.06442 17.00967 4397 ft 226 kts 121°
2026-05-04 00:20 51.05768 17.03348 4868 ft 250 kts 108°
2026-05-04 00:20 51.05797 17.06218 5377 ft 275 kts 71°
2026-05-04 00:20 51.06760 17.08907 5893 ft 287 kts 54°
2026-05-04 00:21 51.07909 17.11524 6645 ft 294 kts 54°
2026-05-04 00:21 51.09041 17.14152 7597 ft 291 kts 55°
2026-05-04 00:21 51.10173 17.16850 8434 ft 295 kts 56°
2026-05-04 00:21 51.11295 17.19569 9193 ft 300 kts 57°
2026-05-04 00:22 51.12445 17.22327 9984 ft 304 kts 52°
2026-05-04 00:22 51.14023 17.24525 10573 ft 311 kts 24°
2026-05-04 00:22 51.16175 17.25265 10949 ft 323 kts 353°
2026-05-04 00:22 51.18368 17.24339 11333 ft 336 kts 334°
2026-05-04 00:23 51.20531 17.22730 11794 ft 351 kts 331°
2026-05-04 00:23 51.22783 17.21055 12200 ft 367 kts 333°
2026-05-04 00:23 51.25138 17.19431 12906 ft 372 kts 335°
2026-05-04 00:23 51.27552 17.17878 13680 ft 378 kts 335°
2026-05-04 00:24 51.29992 17.16371 14414 ft 380 kts 336°
2026-05-04 00:24 51.32496 17.14858 15020 ft 384 kts 336°
2026-05-04 00:24 51.34983 17.13374 15603 ft 389 kts 336°
2026-05-04 00:24 51.37543 17.11857 16273 ft 392 kts 336°
2026-05-04 00:25 51.40105 17.10348 16930 ft 394 kts 336°
2026-05-04 00:25 51.41985 17.09244 17390 ft 396 kts 336°
2026-05-04 00:25 51.43152 17.08560 17646 ft 398 kts 336°
2026-05-04 00:25 51.45785 17.07017 18211 ft 402 kts 336°
2026-05-04 00:26 51.48394 17.05485 18771 ft 405 kts 336°
2026-05-04 00:26 51.51031 17.03934 19332 ft 407 kts 336°
2026-05-04 00:26 51.53714 17.02358 19911 ft 410 kts 336°
2026-05-04 00:26 51.56368 17.00816 20540 ft 411 kts 335°
2026-05-04 00:27 51.59032 16.99270 21245 ft 409 kts 333°
2026-05-04 00:27 51.61717 16.97709 21972 ft 407 kts 331°
2026-05-04 00:27 51.64327 16.96185 22628 ft 405 kts 330°
2026-05-04 00:27 51.66983 16.94583 23119 ft 407 kts 332°
2026-05-04 00:28 51.69630 16.92971 23440 ft 413 kts 334°
2026-05-04 00:28 51.72333 16.91331 23763 ft 419 kts 336°
2026-05-04 00:28 51.75079 16.89679 24128 ft 423 kts 338°
2026-05-04 00:28 51.77831 16.88055 24528 ft 426 kts 339°
2026-05-04 00:29 51.80624 16.86413 24957 ft 429 kts 339°
2026-05-04 00:29 51.83429 16.84758 25369 ft 431 kts 339°
2026-05-04 00:29 51.86215 16.83108 25768 ft 433 kts 339°
2026-05-04 00:29 51.89058 16.81417 26158 ft 435 kts 339°
2026-05-04 00:30 51.91874 16.79736 26523 ft 437 kts 339°
2026-05-04 00:30 51.94738 16.78024 26863 ft 440 kts 339°
2026-05-04 00:30 51.97595 16.76313 27207 ft 442 kts 339°
2026-05-04 00:30 52.00497 16.74570 27546 ft 444 kts 339°
2026-05-04 00:31 52.03383 16.72833 27866 ft 446 kts 339°
2026-05-04 00:31 52.06284 16.71085 28164 ft 448 kts 339°
2026-05-04 00:31 52.09191 16.69332 28454 ft 450 kts 339°
2026-05-04 00:31 52.12142 16.67550 28795 ft 450 kts 339°
2026-05-04 00:32 52.15072 16.65778 29226 ft 448 kts 339°
2026-05-04 00:32 52.17954 16.64032 29665 ft 445 kts 339°
2026-05-04 00:32 52.20869 16.62262 30052 ft 444 kts 339°
2026-05-04 00:32 52.23735 16.60521 30404 ft 444 kts 339°
2026-05-04 00:33 52.26631 16.58760 30768 ft 443 kts 339°
2026-05-04 00:33 52.32343 16.55279 31513 ft 440 kts 339°
2026-05-04 00:33 52.35214 16.53526 31887 ft 438 kts 339°
2026-05-04 00:34 52.38052 16.51789 32036 ft 439 kts 339°
2026-05-04 00:34 52.43718 16.48317 32040 ft 438 kts 339°
2026-05-04 00:35 52.49422 16.44811 32039 ft 438 kts 339°
2026-05-04 00:35 52.55087 16.41319 32036 ft 438 kts 339°
2026-05-04 00:36 52.60776 16.37803 32032 ft 438 kts 339°
2026-05-04 00:36 52.66476 16.34271 32025 ft 439 kts 338°
2026-05-04 00:37 52.72176 16.30726 32023 ft 439 kts 338°
2026-05-04 00:37 52.77858 16.27184 32021 ft 439 kts 338°
2026-05-04 00:38 52.83572 16.23612 32020 ft 439 kts 338°
2026-05-04 00:38 52.89278 16.20037 32019 ft 439 kts 338°
2026-05-04 00:39 52.94971 16.16459 32014 ft 439 kts 338°
2026-05-04 00:39 53.00657 16.12876 32013 ft 441 kts 338°
2026-05-04 00:40 53.06403 16.09244 32013 ft 441 kts 338°
2026-05-04 00:40 53.12103 16.05631 32010 ft 441 kts 337°
2026-05-04 00:41 53.17818 16.01996 32005 ft 441 kts 337°
2026-05-04 00:41 53.23533 15.98349 32003 ft 441 kts 338°
2026-05-04 00:42 53.29259 15.94688 31999 ft 441 kts 338°
2026-05-04 00:42 53.34964 15.91027 31997 ft 441 kts 338°
2026-05-04 00:43 53.40680 15.87351 31992 ft 441 kts 338°
2026-05-04 00:43 53.46366 15.83680 31986 ft 441 kts 337°
2026-05-04 00:44 53.52063 15.79989 31986 ft 441 kts 337°
2026-05-04 00:44 53.57799 15.76265 31985 ft 440 kts 337°
2026-05-04 00:45 53.63469 15.72574 31984 ft 440 kts 337°
2026-05-04 00:45 53.69191 15.68839 31980 ft 441 kts 337°
2026-05-04 00:46 53.74867 15.65126 31976 ft 441 kts 337°
2026-05-04 00:46 53.80579 15.61378 31977 ft 441 kts 337°
2026-05-04 00:47 53.86294 15.57616 31973 ft 441 kts 337°
2026-05-04 00:47 53.91969 15.53871 31967 ft 440 kts 337°
2026-05-04 00:48 53.97678 15.50090 31971 ft 441 kts 337°
2026-05-04 00:48 54.03376 15.46307 31966 ft 441 kts 337°
2026-05-04 00:49 54.09071 15.42514 31964 ft 441 kts 337°
2026-05-04 00:49 54.14758 15.38715 31967 ft 441 kts 337°
2026-05-04 00:50 54.20450 15.34897 31962 ft 441 kts 336°
2026-05-04 00:50 54.26151 15.31064 31964 ft 440 kts 336°
2026-05-04 00:51 54.31840 15.27231 31957 ft 441 kts 336°
2026-05-04 00:51 54.37526 15.23389 31956 ft 441 kts 336°
2026-05-04 00:52 54.43197 15.19543 31952 ft 440 kts 336°
2026-05-04 00:52 54.49102 15.15527 31951 ft 440 kts 336°
2026-05-04 00:53 54.55858 15.10921 31643 ft 429 kts 336°
2026-05-04 00:53 54.60666 15.07630 31189 ft 429 kts 335°
2026-05-04 00:53 54.66171 15.03849 30662 ft 430 kts 336°
2026-05-04 00:53 54.71681 15.00057 30137 ft 431 kts 336°
2026-05-04 00:54 54.77268 14.96199 29606 ft 433 kts 336°
2026-05-04 00:54 54.82892 14.92305 29076 ft 435 kts 336°
2026-05-04 00:54 54.88436 14.88458 28509 ft 437 kts 336°
2026-05-04 00:54 54.94073 14.84535 27277 ft 440 kts 335°
2026-05-04 00:55 54.99713 14.80596 26130 ft 434 kts 335°
2026-05-04 00:55 55.05041 14.76248 25076 ft 422 kts 322°
2026-05-04 00:55 55.08753 14.68658 24024 ft 407 kts 296°
2026-05-04 00:55 55.11212 14.60192 23012 ft 401 kts 295°
2026-05-04 00:56 55.13690 14.51567 21968 ft 395 kts 295°
2026-05-04 00:56 55.16128 14.43159 20942 ft 390 kts 295°
2026-05-04 00:56 55.18527 14.34892 19926 ft 384 kts 294°
2026-05-04 00:56 55.20859 14.26838 18925 ft 379 kts 294°
2026-05-04 00:57 55.22999 14.19430 17999 ft 374 kts 294°
2026-05-04 00:57 55.25270 14.11533 16969 ft 369 kts 294°
2026-05-04 00:57 55.27537 14.03623 15937 ft 364 kts 293°
2026-05-04 00:57 55.29807 13.95715 14897 ft 359 kts 293°
2026-05-04 00:58 55.31990 13.88054 13891 ft 352 kts 293°
2026-05-04 00:58 55.34161 13.80417 12873 ft 344 kts 292°
2026-05-04 00:58 55.36253 13.73024 11891 ft 336 kts 292°
2026-05-04 00:58 55.38279 13.65840 10927 ft 330 kts 292°
2026-05-04 00:59 55.39987 13.59793 10588 ft 306 kts 292°
2026-05-04 00:59 55.40853 13.56550 10426 ft 280 kts 289°
2026-05-04 00:59 55.41515 13.53501 10288 ft 261 kts 284°
2026-05-04 00:59 55.42052 13.50479 10158 ft 257 kts 283°
2026-05-04 01:00 55.42566 13.47496 10040 ft 255 kts 283°
2026-05-04 01:00 55.43080 13.44526 9869 ft 254 kts 283°
2026-05-04 01:00 55.43587 13.41567 9504 ft 253 kts 283°
2026-05-04 01:00 55.44094 13.38619 9165 ft 250 kts 283°
2026-05-04 01:01 55.44595 13.35708 8839 ft 247 kts 283°
2026-05-04 01:01 55.45094 13.32799 8510 ft 245 kts 283°
2026-05-04 01:01 55.45575 13.29969 8193 ft 243 kts 280°
2026-05-04 01:01 55.45844 13.27038 7871 ft 238 kts 270°
2026-05-04 01:02 55.45790 13.24090 7852 ft 249 kts 263°
2026-05-04 01:02 55.45615 13.21024 7885 ft 252 kts 262°
2026-05-04 01:02 55.45428 13.17960 7908 ft 252 kts 262°
2026-05-04 01:02 55.45241 13.14864 7926 ft 252 kts 262°
2026-05-04 01:03 55.45054 13.11790 7928 ft 252 kts 262°
2026-05-04 01:03 55.44865 13.08752 7935 ft 252 kts 262°
2026-05-04 01:03 55.44673 13.05693 7931 ft 252 kts 262°
2026-05-04 01:03 55.44481 13.02627 7933 ft 252 kts 262°
2026-05-04 01:04 55.44287 12.99551 7934 ft 253 kts 262°
2026-05-04 01:04 55.44096 12.96478 7932 ft 253 kts 262°
2026-05-04 01:04 55.44087 12.93399 7921 ft 256 kts 275°
2026-05-04 01:04 55.44541 12.90355 7926 ft 259 kts 287°
2026-05-04 01:05 55.45217 12.87404 7930 ft 260 kts 288°
2026-05-04 01:05 55.45917 12.84473 7927 ft 260 kts 290°
2026-05-04 01:05 55.46935 12.81780 7774 ft 272 kts 314°
2026-05-04 01:05 55.48652 12.80246 7359 ft 286 kts 344°
2026-05-04 01:06 55.50629 12.80371 6989 ft 296 kts 11°
2026-05-04 01:06 55.52584 12.81534 6661 ft 293 kts 15°
2026-05-04 01:06 55.54494 12.82717 6333 ft 290 kts 14°
2026-05-04 01:06 55.56368 12.83925 6007 ft 287 kts 17°
2026-05-04 01:07 55.58184 12.85228 5701 ft 283 kts 18°
2026-05-04 01:07 55.59992 12.86543 5376 ft 280 kts 18°
2026-05-04 01:07 55.61790 12.87875 5060 ft 278 kts 22°
2026-05-04 01:07 55.63438 12.89613 4816 ft 281 kts 34°
2026-05-04 01:08 55.64965 12.91859 4827 ft 286 kts 39°
2026-05-04 01:08 55.66445 12.94212 4540 ft 286 kts 39°
2026-05-04 01:08 55.67896 12.96533 4219 ft 284 kts 39°
2026-05-04 01:08 55.69360 12.98859 3965 ft 276 kts 39°
2026-05-04 01:09 55.70748 13.01044 3679 ft 262 kts 38°
2026-05-04 01:09 55.72241 13.02745 3158 ft 251 kts
2026-05-04 01:09 55.73853 13.02609 2797 ft 227 kts 330°
2026-05-04 01:09 55.74901 13.00754 2605 ft 212 kts 287°
2026-05-04 01:10 55.75073 12.98175 2626 ft 212 kts 264°
2026-05-04 01:10 55.74809 12.95619 2616 ft 212 kts 260°
2026-05-04 01:10 55.74688 12.93008 2611 ft 211 kts 271°
2026-05-04 01:10 55.74826 12.90403 2614 ft 213 kts 278°
2026-05-04 01:11 55.75104 12.87848 2612 ft 213 kts 275°
2026-05-04 01:11 55.74860 12.85300 2597 ft 214 kts 242°
2026-05-04 01:11 55.73950 12.83219 2612 ft 213 kts 227°
2026-05-04 01:11 55.72907 12.81478 2591 ft 198 kts 224°
2026-05-04 01:12 55.71905 12.79923 2596 ft 191 kts 224°
2026-05-04 01:12 55.70891 12.78374 2506 ft 191 kts 224°
2026-05-04 01:12 55.69886 12.76832 2263 ft 192 kts 224°
2026-05-04 01:12 55.68887 12.75291 2000 ft 190 kts 224°
2026-05-04 01:13 55.67891 12.73753 1745 ft 190 kts 224°
2026-05-04 01:13 55.66900 12.72224 1556 ft 183 kts 223°
2026-05-04 01:13 55.65978 12.70806 1295 ft 170 kts 223°
2026-05-04 01:13 55.65122 12.69484 1070 ft 156 kts 223°
2026-05-04 01:14 55.64339 12.68273 833 ft 142 kts 223°
2026-05-04 01:14 55.63619 12.67160 639 ft 136 kts 224°
2026-05-04 01:14 55.62909 12.66062 483 ft 136 kts 221°
2026-05-04 01:14 55.62203 12.64984 302 ft 135 kts 223°
2026-05-04 01:15 55.61503 12.63894 121 ft 132 kts 222°
2026-05-04 01:15 55.60832 12.62856 19 ft 122 kts 222°
2026-05-04 01:15 55.60315 12.62054 15 ft 73 kts 221°
2026-05-04 01:15 55.60086 12.61698 12 ft 20 kts 221°
2026-05-04 01:16 55.60021 12.61504 12 ft 19 kts 297°
2026-05-04 01:16 55.60133 12.61505 12 ft 18 kts 39°
2026-05-04 01:16 55.60228 12.61658 13 ft 18 kts 43°
2026-05-04 01:16 55.60321 12.61804 15 ft 17 kts 41°
2026-05-04 01:17 55.60421 12.61956 15 ft 23 kts 41°
2026-05-04 01:17 55.60543 12.62147 15 ft 23 kts 41°
2026-05-04 01:17 55.60665 12.62331 15 ft 22 kts 31°
2026-05-04 01:17 55.60804 12.62425 18 ft 20 kts 34°
2026-05-04 01:18 55.60910 12.62584 20 ft 19 kts 42°